| time (UTC) | temp F | wind direction | speed MPH | gust MPH | rain 1hr in | rain 24hr in | rain mn in | humidity % | barometer mb |
| 20260901123031 | 73 | 328 | 0.0 | 0.0 | 0.00 | 0.00 | 0.00 | 74 | 1011.9 |
| 20260901121529 | 72 | 328 | 0.0 | 0.0 | 0.00 | 0.00 | 0.00 | 76 | 1011.8 |
| 20260901120030 | 72 | 139 | 0.0 | 0.0 | 0.00 | 0.00 | 0.00 | 76 | 1011.7 |
| 20260901114529 | 71 | 146 | 0.0 | 0.0 | 0.00 | 0.00 | 0.00 | 77 | 1011.5 |
| 20260901113032 | 70 | 70 | 0.0 | 0.0 | 0.00 | 0.00 | 0.00 | 78 | 1011.4 |
| 20260901111521 | 69 | 70 | 0.0 | 0.0 | 0.00 | 0.00 | 0.00 | 78 | 1011.2 |
| 20260901110020 | 69 | 70 | 0.0 | 0.0 | 0.00 | 0.00 | 0.00 | 77 | 1011.1 |
| 20260901104518 | 69 | 70 | 0.0 | 0.0 | 0.00 | 0.00 | 0.00 | 76 | 1011.0 |
| 20260901103015 | 70 | 70 | 0.0 | 0.0 | 0.00 | 0.00 | 0.00 | 76 | 1010.9 |
| 20260901101514 | 70 | 130 | 0.0 | 0.0 | 0.00 | 0.00 | 0.00 | 76 | 1010.7 |
| 20260901100014 | 71 | 143 | 0.0 | 0.0 | 0.00 | 0.00 | 0.00 | 76 | 1010.7 |
| 20260901094512 | 71 | 145 | 0.0 | 0.0 | 0.00 | 0.00 | 0.00 | 76 | 1010.6 |
| 20260901093018 | 71 | 183 | 0.0 | 0.0 | 0.00 | 0.00 | 0.00 | 76 | 1010.5 |
| 20260901091510 | 71 | 183 | 0.0 | 0.0 | 0.00 | 0.00 | 0.00 | 75 | 1010.4 |
| 20260901090013 | 71 | 181 | 0.0 | 0.0 | 0.00 | 0.00 | 0.00 | 75 | 1010.4 |
| 20260901084525 | 71 | 224 | 0.0 | 0.0 | 0.00 | 0.00 | 0.00 | 75 | 1010.3 |
| 20260901083008 | 71 | 192 | 0.0 | 0.0 | 0.00 | 0.00 | 0.00 | 75 | 1010.2 |
| 20260901081507 | 71 | 146 | 0.0 | 0.0 | 0.00 | 0.00 | 0.00 | 74 | 1010.1 |
| 20260901080007 | 71 | 207 | 0.0 | 0.0 | 0.00 | 0.00 | 0.00 | 74 | 1010.2 |
| 20260901074507 | 72 | 159 | 0.0 | 0.0 | 0.00 | 0.00 | 0.00 | 74 | 1010.3 |
| 20260901073005 | 72 | 179 | 0.0 | 0.0 | 0.00 | 0.00 | 0.00 | 73 | 1010.3 |
| 20260901071505 | 72 | 186 | 0.0 | 0.0 | 0.00 | 0.00 | 0.00 | 73 | 1010.2 |
| 20260901070004 | 72 | 230 | 0.0 | 0.0 | 0.00 | 0.00 | 0.00 | 73 | 1010.3 |
| 20260901064503 | 72 | 193 | 0.0 | 0.0 | 0.00 | 0.00 | 0.00 | 73 | 1010.3 |
| 20260901063005 | 72 | 217 | 0.0 | 0.0 | 0.00 | 0.00 | 0.00 | 72 | 1010.4 |
| 20260901061502 | 72 | 178 | 0.0 | 0.0 | 0.00 | 0.00 | 0.00 | 72 | 1010.4 |
| 20260901060001 | 72 | 155 | 0.0 | 0.0 | 0.00 | 0.00 | 0.00 | 72 | 1010.5 |
| 20260901054600 | 72 | 216 | 0.0 | 0.0 | 0.00 | 0.00 | 0.00 | 72 | 1010.5 |
| 20260901053159 | 72 | 184 | 0.0 | 0.0 | 0.00 | 0.00 | 0.00 | 71 | 1010.5 |
| 20260901051606 | 72 | 175 | 0.0 | 0.0 | 0.00 | 0.00 | 0.00 | 71 | 1010.4 |
| 20260901050057 | 72 | 153 | 0.0 | 0.0 | 0.00 | 0.00 | 0.00 | 71 | 1010.5 |
| 20260901044616 | 71 | 146 | 0.0 | 0.0 | 0.00 | 0.00 | 0.00 | 72 | 1010.5 |
| 20260901043051 | 71 | 238 | 0.0 | 0.0 | 0.00 | 0.00 | 0.00 | 73 | 1010.6 |
| 20260901041549 | 70 | 158 | 0.0 | 0.0 | 0.00 | 0.00 | 0.00 | 73 | 1010.5 |
| 20260901040047 | 70 | 139 | 0.0 | 0.0 | 0.00 | 0.00 | 0.00 | 74 | 1010.5 |
| 20260901034553 | 71 | 143 | 0.0 | 0.0 | 0.00 | 0.00 | 0.00 | 74 | 1010.6 |
| 20260901033047 | 71 | 143 | 0.0 | 0.0 | 0.00 | 0.00 | 0.00 | 74 | 1010.6 |
| 20260901031551 | 71 | 63 | 0.0 | 0.0 | 0.00 | 0.00 | 0.00 | 74 | 1010.4 |
| 20260901030047 | 71 | 78 | 0.0 | 0.0 | 0.00 | 0.00 | 0.00 | 75 | 1010.5 |
| 20260901024545 | 71 | 60 | 0.0 | 0.0 | 0.00 | 0.00 | 0.00 | 75 | 1010.7 |
| 20260901023044 | 71 | 56 | 0.0 | 0.0 | 0.00 | 0.00 | 0.00 | 76 | 1010.8 |
| 20260901021605 | 71 | 130 | 0.0 | 0.0 | 0.00 | 0.00 | 0.00 | 76 | 1010.8 |
| 20260901020101 | 71 | 131 | 0.0 | 0.0 | 0.00 | 0.00 | 0.00 | 76 | 1010.8 |
| 20260901014548 | 71 | 337 | 0.0 | 0.0 | 0.00 | 0.00 | 0.00 | 76 | 1010.9 |
| 20260901013044 | 71 | 337 | 0.0 | 0.0 | 0.00 | 0.00 | 0.00 | 75 | 1010.8 |
| 20260901011543 | 71 | 337 | 0.0 | 0.0 | 0.00 | 0.00 | 0.00 | 75 | 1010.6 |
| 20260901010043 | 72 | 337 | 0.0 | 0.0 | 0.00 | 0.00 | 0.00 | 74 | 1010.6 |
| 20260901004543 | 73 | 337 | 0.0 | 0.0 | 0.00 | 0.00 | 0.00 | 73 | 1010.3 |
| 20260901003048 | 73 | 336 | 0.0 | 0.0 | 0.00 | 0.00 | 0.00 | 72 | 1010.3 |
| 20260901001555 | 74 | 336 | 0.0 | 0.0 | 0.00 | 0.00 | 0.00 | 71 | 1010.4 |
| 20260901000044 | 75 | 4 | 0.0 | 0.0 | 0.00 | 0.00 | 0.00 | 71 | 1010.3 |
| 20260831234552 | 76 | 344 | 0.0 | 0.0 | 0.00 | 0.00 | 0.00 | 70 | 1010.5 |
| 20260831233045 | 77 | 15 | 0.0 | 0.0 | 0.00 | 0.00 | 0.00 | 68 | 1010.5 |
| 20260831231536 | 78 | 18 | 0.0 | 0.0 | 0.00 | 0.00 | 0.00 | 66 | 1010.5 |
| 20260831230034 | 79 | 20 | 0.0 | 0.0 | 0.00 | 0.00 | 0.00 | 66 | 1010.5 |
| 20260831224530 | 78 | 27 | 0.0 | 0.0 | 0.00 | 0.00 | 0.00 | 68 | 1010.6 |
| 20260831223031 | 76 | 10 | 0.0 | 1.0 | 0.00 | 0.00 | 0.00 | 69 | 1010.9 |
| 20260831221527 | 76 | 49 | 0.0 | 0.0 | 0.00 | 0.00 | 0.00 | 68 | 1010.8 |
| 20260831220025 | 76 | 39 | 0.0 | 1.0 | 0.00 | 0.00 | 0.00 | 68 | 1010.9 |
| 20260831214523 | 76 | 328 | 0.0 | 2.0 | 0.00 | 0.00 | 0.00 | 70 | 1011.1 |
| 20260831213031 | 75 | 344 | 0.0 | 0.0 | 0.00 | 0.00 | 0.00 | 72 | 1011.2 |
| 20260831211521 | 75 | 342 | 0.0 | 1.0 | 0.00 | 0.00 | 0.00 | 72 | 1011.3 |
| 20260831210021 | 75 | 328 | 0.0 | 2.0 | 0.00 | 0.00 | 0.00 | 72 | 1011.3 |
| 20260831204519 | 74 | 360 | 0.0 | 0.0 | 0.00 | 0.00 | 0.00 | 73 | 1011.2 |
| 20260831203019 | 74 | 68 | 0.0 | 2.0 | 0.00 | 0.00 | 0.00 | 74 | 1011.2 |
| 20260831201518 | 74 | 2 | 0.0 | 0.0 | 0.00 | 0.00 | 0.00 | 76 | 1011.3 |
| 20260831200024 | 74 | 349 | 0.0 | 0.0 | 0.00 | 0.00 | 0.00 | 74 | 1011.6 |
| 20260831194532 | 74 | 349 | 0.0 | 0.0 | 0.00 | 0.00 | 0.00 | 73 | 1012.2 |
| 20260831193019 | 75 | 349 | 0.0 | 0.0 | 0.00 | 0.00 | 0.00 | 72 | 1012.1 |
| 20260831191515 | 75 | 349 | 0.0 | 0.0 | 0.00 | 0.00 | 0.00 | 71 | 1012.4 |
| 20260831190014 | 75 | 288 | 0.0 | 4.0 | 0.00 | 0.00 | 0.00 | 71 | 1012.5 |
| 20260831184519 | 74 | 5 | 0.0 | 0.0 | 0.00 | 0.00 | 0.00 | 77 | 1012.2 |
| 20260831183007 | 72 | 34 | 0.0 | 0.0 | 0.00 | 0.00 | 0.00 | 79 | 1012.1 |
| 20260831181505 | 71 | 40 | 1.0 | 3.0 | 0.00 | 0.00 | 0.00 | 79 | 1012.1 |
| 20260831174610 | 69 | 15 | 0.0 | 4.0 | 0.00 | 0.00 | 0.00 | 79 | 1012.1 |
| 20260831173106 | 69 | 288 | 1.0 | 3.0 | 0.00 | 0.00 | 0.00 | 79 | 1011.0 |
| 20260831171554 | 68 | 118 | 0.0 | 2.0 | 0.00 | 0.00 | 0.00 | 79 | 1013.2 |
| 20260831170058 | 70 | 256 | 0.0 | 5.0 | 0.00 | 0.00 | 0.00 | 79 | 1014.3 |
| 20260831164555 | 70 | 190 | 0.0 | 0.0 | 0.00 | 0.00 | 0.00 | 79 | 1014.0 |
| 20260831163054 | 70 | 198 | 0.0 | 0.0 | 0.00 | 0.00 | 0.00 | 79 | 1014.0 |
| 20260831161553 | 70 | 319 | 0.0 | 0.0 | 0.00 | 0.00 | 0.00 | 79 | 1014.1 |
| 20260831160054 | 70 | 193 | 0.0 | 0.0 | 0.00 | 0.00 | 0.00 | 79 | 1014.3 |
| 20260831154551 | 70 | 292 | 0.0 | 0.0 | 0.00 | 0.00 | 0.00 | 79 | 1014.4 |
| 20260831153055 | 69 | 191 | 0.0 | 4.0 | 0.00 | 0.00 | 0.00 | 79 | 1014.5 |
| 20260831151559 | 69 | 244 | 0.0 | 3.0 | 0.00 | 0.00 | 0.00 | 79 | 1014.7 |
| 20260831150051 | 69 | 263 | 0.0 | 4.0 | 0.00 | 0.00 | 0.00 | 79 | 1014.9 |
| 20260831144605 | 69 | 213 | 0.0 | 3.0 | 0.00 | 0.00 | 0.00 | 79 | 1015.0 |
| 20260831143048 | 69 | 238 | 0.0 | 3.0 | 0.00 | 0.00 | 0.00 | 79 | 1014.5 |
| 20260831141549 | 69 | 176 | 0.0 | 0.0 | 0.00 | 0.00 | 0.00 | 78 | 1014.4 |
| 20260831140042 | 69 | 34 | 0.0 | 0.0 | 0.00 | 0.00 | 0.00 | 78 | 1014.2 |
| 20260831134542 | 69 | 42 | 0.0 | 0.0 | 0.00 | 0.00 | 0.00 | 78 | 1013.7 |
| 20260831133039 | 69 | 34 | 0.0 | 0.0 | 0.00 | 0.00 | 0.00 | 78 | 1013.6 |
| 20260831131542 | 70 | 63 | 0.0 | 0.0 | 0.00 | 0.00 | 0.00 | 78 | 1013.4 |
| 20260831130046 | 69 | 86 | 0.0 | 0.0 | 0.00 | 0.00 | 0.00 | 78 | 1013.1 |
| 20260831124538 | 69 | 68 | 0.0 | 0.0 | 0.00 | 0.00 | 0.00 | 78 | 1013.0 |